[[{"header":{"parameterUnit":"m.s-1","parameterCategory":1,"la1":30.2991,"la2":30.254,"lo1":-89.0895,"lo2":-89.0444,"dy":0.0017,"dx":0.0017,"nx":28,"ny":28,"refTime":"2025-07-29T09:00:00:Z","depth":0,"parameterNumber":2,"parameterNumberName":"U-component_of_WINDS"},"data":[0,0,0,0,0,0,0,0,0,0,0,0,0,0,0,0,0,0,0,0,0,0,0,0,0,0,0,0,0,0,0,0,0,0,0,0,0,0,0,0,0,0,0,0,0,0,0,0,0,0,0,0,0,0,0,0,0,0,4.2592,4.2592,0,4.2646,4.2647,4.2648,4.2543,4.254,4.2536,4.2533,4.2589,4.2594,4.2598,0,0,0,0,0,0,0,0,0,0,0,0,0,4.2395,4.2399,4.2592,4.2592,4.2593,4.2646,4.2647,4.2648,4.2544,4.254,4.2536,4.2532,4.2587,4.2593,4.2599,0,0,0,0,0,0,0,0,0,0,0,0,0,4.2468,4.24,4.2592,4.2548,4.2544,4.2646,4.2647,4.2648,4.2545,4.254,4.2534,4.253,4.2586,4.2592,4.2599,4.2746,0,0,4.2621,4.2624,0,0,0,0,0,0,0,0,4.2464,4.2475,4.2553,4.2551,4.2547,4.2583,4.2598,4.2681,4.2546,4.2545,4.2533,4.2527,4.2591,4.2597,4.2619,4.2749,4.2751,4.2622,4.2626,4.2629,4.2631,0,0,0,0,0,0,0,4.2459,4.2472,4.2613,4.2555,4.2551,4.2524,4.2529,4.2613,4.2596,4.2544,4.2537,4.2545,4.2588,4.2612,4.2619,4.2752,4.2621,4.2628,4.2632,4.2635,4.3001,4.3006,0,0,0,0,0,0,4.246,4.2469,4.2611,4.2615,4.2492,4.2532,4.2537,4.2577,4.2595,4.2593,4.2549,4.254,4.2603,4.2611,4.2621,4.2791,4.2629,4.2635,4.2639,4.2996,4.3002,4.3008,0,0,0,0,0,0,4.2456,4.2474,4.2609,4.254,4.2555,4.2541,4.2586,4.258,4.2604,4.2599,4.2595,4.2577,4.2599,4.2611,4.2715,4.2792,4.2639,4.2645,4.2989,4.2998,4.3005,4.3134,0,0,0,0,0,0,4.2451,4.2473,4.2529,4.2542,4.2559,4.2704,4.2591,4.2585,4.2617,4.2605,4.2624,4.2622,4.2596,4.2705,4.2722,4.2798,4.265,4.2982,4.2993,4.3003,4.3123,4.3146,4.3166,0,0,0,0,0,4.2444,4.2564,4.2533,4.255,4.263,4.2708,4.2718,4.2686,4.2623,4.2679,4.2675,4.2621,4.2781,4.2717,4.2735,4.2815,4.2977,4.299,4.3002,4.3114,4.3142,4.3165,0,0,0,0,0,0,4.2562,4.2565,4.253,4.2658,4.2684,4.269,4.276,4.2717,4.2761,4.2748,4.2706,4.2711,4.2823,4.2829,4.2757,4.2956,4.2868,4.2885,4.2947,4.2973,4.2994,4.2989,4.2656,0,0,0,0,0,4.2602,4.2666,4.2666,4.2779,4.2793,4.2775,4.2808,4.2781,4.2805,4.2815,4.2819,4.2845,4.29,4.2937,4.2989,4.3124,4.3125,4.3188,4.3209,4.3227,4.3241,4.3309,4.3336,4.3049,4.3049,4.3049,0,0,4.2687,4.2697,4.274,4.2803,4.2819,4.2884,4.2785,4.2859,4.2907,4.2827,4.2924,4.2928,4.2953,4.3073,4.3126,4.3082,4.332,4.3242,4.3256,4.3261,4.3325,4.3352,4.3376,4.3057,4.3056,4.3055,0,0,4.2875,4.289,4.2984,4.3002,4.3028,4.3014,4.3037,4.305,4.3049,4.3146,4.3086,4.3142,4.324,4.3259,4.3282,4.3474,4.3425,4.3492,4.3602,4.3669,4.3692,4.3712,4.3777,4.3801,4.3507,4.3507,4.3507,0,4.2977,4.3074,4.3038,4.3115,4.3143,4.3073,4.3166,4.3186,4.3228,4.3248,4.3198,4.3316,4.3329,4.345,4.3497,4.3519,4.3541,4.3489,4.3692,4.3711,4.3729,4.3791,4.3816,4.3515,4.3514,4.3513,4.3513,0,4.3196,4.3264,4.3337,4.3377,4.3413,4.3499,4.3474,4.3516,4.3485,4.3476,4.3574,4.3587,4.3637,4.3665,4.3637,4.3781,4.3753,4.3699,4.3609,4.3765,4.3822,4.3845,4.3526,4.3523,4.3521,4.3519,0,0,4.3459,4.3477,4.3504,4.3519,4.3542,4.3593,4.3675,4.3724,4.3758,4.3789,4.3854,4.3937,4.3886,4.3912,4.3885,4.3945,4.4092,4.3882,4.3882,4.3918,4.4248,4.4286,4.4315,4.406,4.4065,4.4068,4.4244,0,4.3642,4.3781,4.375,4.3887,4.3947,4.3881,4.3951,4.3972,4.3966,4.4016,4.4009,4.4067,4.3997,4.4011,4.4067,4.4062,4.4157,4.4049,4.4118,4.4121,4.4111,4.4345,4.4387,4.4552,4.4267,4.4271,4.4274,0,4.3874,4.3912,4.4055,4.4064,4.4088,4.4152,4.4193,4.4242,4.4263,4.4254,4.4282,4.4243,4.4321,4.4233,4.434,4.4267,4.4293,4.4295,4.43,4.4303,4.4205,4.4351,4.4605,4.4629,4.4309,4.4306,4.4304,0,4.4047,4.4134,4.423,4.4246,4.426,4.4306,4.4314,4.433,4.4361,4.4396,4.4415,4.446,4.4484,4.4519,4.4492,4.4431,4.4601,4.4512,4.4594,4.4595,4.4631,4.4629,4.489,4.4654,4.4653,4.4653,4.4652,0,4.4253,4.4342,4.4307,4.4366,4.4462,4.4425,4.4522,4.4522,4.4537,4.4593,4.4539,4.4593,4.4556,4.4606,4.4586,4.4675,4.4687,4.468,4.4673,4.4684,4.4684,4.4698,4.4685,4.4659,4.4658,4.4657,4.4656,0,4.4462,4.4443,4.4541,4.4546,4.4549,4.462,4.4624,4.4677,4.4667,4.4738,4.4753,4.4736,4.4792,4.4769,4.483,4.4816,4.4929,4.4908,4.4921,4.4915,4.4997,4.4988,4.5274,4.5308,4.5053,4.5056,4.5058,0,4.4593,4.466,4.4671,4.4705,4.4716,4.4772,4.4801,4.4767,4.48,4.4828,4.4878,4.4929,4.4968,4.506,4.5053,4.5098,4.5076,4.5173,4.5082,4.5089,4.5073,4.5068,4.5073,4.519,4.5193,4.5196,4.5198,0,4.4827,4.4814,4.4859,4.4901,4.4938,4.4969,4.4996,4.5026,4.4993,4.5033,4.5089,4.5119,4.5179,4.5229,4.5269,4.5276,4.5231,4.5226,4.5247,4.5257,4.526,4.5256,4.4967,4.5219,4.5217,4.5216,4.5214,4.5214,4.4999,4.5053,4.5069,4.512,4.5137,4.5162,4.5211,4.5206,4.5252,4.5298,4.5275,4.5339,4.5356,4.5404,4.5417,4.5466,4.5428,4.5459,4.5466,4.5473,4.5482,4.5255,4.5474,4.5473,4.5472,4.5472,4.5471,0,4.5227,4.5233,4.5281,4.5319,4.5359,4.5313,4.5339,4.5375,4.5433,4.5452,4.5491,4.5554,4.5602,4.5598,4.5642,4.5682,4.5662,4.5694,4.569,4.5691,4.5516,4.5492,4.5709,4.5709,4.5709,4.5709,4.5709,4.5709,4.535,4.5439,4.5427,4.5522,4.5527,4.5589,4.5608,4.563,4.5645,4.5717,4.5757,4.5754,4.5763,4.5807,4.5848,4.5846,4.5863,4.5902,4.5892,4.5728,4.5704,4.5681,4.5658,4.5907,4.5908,4.6062,4.6064,4.6065]},{"header":{"parameterUnit":"m.s-1","parameterCategory":1,"la1":30.2991,"la2":30.254,"lo1":-89.0895,"lo2":-89.0444,"dy":0.0017,"dx":0.0017,"nx":28,"ny":28,"refTime":"2025-07-29T09:00:00:Z","depth":0,"parameterNumber":3,"parameterNumberName":"V-component_of_WINDS"},"data":[0,0,0,0,0,0,0,0,0,0,0,0,0,0,0,0,0,0,0,0,0,0,0,0,0,0,0,0,0,0,0,0,0,0,0,0,0,0,0,0,0,0,0,0,0,0,0,0,0,0,0,0,0,0,0,0,0,0,3.7249,3.7251,0,3.7487,3.7489,3.7492,3.7509,3.7506,3.7503,3.7501,3.7747,3.7756,3.7765,0,0,0,0,0,0,0,0,0,0,0,0,0,3.681,3.6818,3.7249,3.7252,3.7255,3.7486,3.7489,3.7493,3.7509,3.7506,3.7503,3.75,3.7744,3.7755,3.7766,0,0,0,0,0,0,0,0,0,0,0,0,0,3.702,3.6821,3.7248,3.7291,3.7297,3.7485,3.749,3.7494,3.751,3.7506,3.7502,3.7498,3.774,3.7754,3.7767,3.793,0,0,3.7808,3.7814,0,0,0,0,0,0,0,0,3.7008,3.7036,3.7281,3.7288,3.7295,3.7464,3.7425,3.764,3.7511,3.7429,3.7501,3.7496,3.7656,3.7676,3.773,3.7942,3.7952,3.781,3.7818,3.7824,3.7827,0,0,0,0,0,0,0,3.6993,3.7026,3.7343,3.7285,3.7294,3.7298,3.7324,3.7466,3.7562,3.7436,3.7438,3.7465,3.7659,3.7717,3.7736,3.7956,3.7809,3.7821,3.783,3.7835,3.8312,3.8316,0,0,0,0,0,0,3.697,3.7013,3.7335,3.735,3.7139,3.7309,3.7338,3.7414,3.7561,3.7579,3.7468,3.7465,3.7696,3.772,3.7744,3.7944,3.7824,3.7836,3.7844,3.8307,3.8313,3.8318,0,0,0,0,0,0,3.6961,3.6999,3.7326,3.7182,3.7224,3.7321,3.7406,3.7421,3.7478,3.7585,3.7603,3.7509,3.7693,3.7725,3.7883,3.7953,3.7842,3.7855,3.8302,3.8309,3.8315,3.8345,0,0,0,0,0,0,3.6948,3.6995,3.7058,3.7184,3.7232,3.746,3.7411,3.7428,3.7501,3.7499,3.7628,3.7646,3.7693,3.7863,3.7897,3.7969,3.7865,3.8296,3.8305,3.8313,3.8338,3.8352,3.8363,0,0,0,0,0,3.6932,3.7058,3.7061,3.71,3.7312,3.7464,3.7492,3.7543,3.7507,3.7571,3.7639,3.7642,3.7939,3.7879,3.7917,3.7995,3.8292,3.8302,3.8312,3.8332,3.8349,3.8363,0,0,0,0,0,0,3.694,3.7076,3.7081,3.7251,3.7346,3.7467,3.7549,3.7559,3.7667,3.7661,3.772,3.7749,3.7904,3.7966,3.7896,3.8159,3.8112,3.813,3.8114,3.8131,3.8143,3.8125,3.7876,0,0,0,0,0,3.6961,3.7073,3.7185,3.7325,3.7372,3.7452,3.752,3.7551,3.7652,3.7693,3.7773,3.7872,3.7987,3.8062,3.8175,3.8347,3.8374,3.8419,3.8431,3.8441,3.8456,3.855,3.8571,3.8351,3.8351,3.8351,0,0,3.7007,3.7095,3.7162,3.7328,3.7406,3.752,3.7486,3.7609,3.7694,3.7712,3.7865,3.7927,3.8041,3.8206,3.8283,3.8262,3.8523,3.8454,3.8461,3.8472,3.8563,3.8583,3.8602,3.8358,3.8357,3.8356,0,0,3.7148,3.7226,3.7349,3.7427,3.7544,3.7596,3.7625,3.7745,3.7787,3.7941,3.7956,3.8058,3.8257,3.8337,3.8404,3.8572,3.8578,3.8607,3.8674,3.8764,3.8782,3.8797,3.8856,3.8877,3.8622,3.8622,3.8622,0,3.719,3.7362,3.7412,3.7534,3.7606,3.7626,3.7751,3.7824,3.7972,3.8021,3.7996,3.8243,3.8322,3.8505,3.8545,3.8599,3.8634,3.8593,3.8775,3.8791,3.8806,3.8863,3.8886,3.8625,3.8624,3.8624,3.8624,0,3.7408,3.7527,3.7613,3.7753,3.7835,3.7958,3.8026,3.8103,3.8126,3.8181,3.8337,3.8431,3.8562,3.8608,3.8632,3.8794,3.8777,3.8763,3.8716,3.8829,3.8884,3.8906,3.8629,3.8628,3.8627,3.8626,0,0,3.7562,3.7726,3.7757,3.782,3.7949,3.8042,3.8166,3.8292,3.8357,3.8458,3.8562,3.8728,3.8715,3.879,3.8824,3.8903,3.9029,3.8879,3.8882,3.8902,3.9211,3.9221,3.9246,3.9033,3.9038,3.9041,3.9201,0,3.7717,3.7936,3.7983,3.8172,3.8282,3.8301,3.8408,3.8499,3.8553,3.8654,3.8714,3.883,3.8805,3.885,3.8929,3.8996,3.9091,3.8986,3.9131,3.9136,3.9101,3.9274,3.9286,3.9433,3.9223,3.9227,3.923,0,3.7927,3.803,3.823,3.8342,3.839,3.8486,3.8605,3.8701,3.8804,3.8838,3.8921,3.8945,3.9074,3.902,3.9198,3.9125,3.9187,3.9229,3.9235,3.9251,3.9189,3.9294,3.9481,3.9502,3.9264,3.9261,3.9259,0,3.8017,3.8207,3.8351,3.8404,3.854,3.8606,3.8666,3.8764,3.8837,3.8941,3.8988,3.9106,3.9171,3.9262,3.9317,3.9273,3.949,3.9441,3.9521,3.952,3.9566,3.9562,3.9765,3.9607,3.9606,3.9606,3.9606,0,3.8185,3.8306,3.8393,3.8481,3.8617,3.867,3.8803,3.8862,3.895,3.905,3.9074,3.9167,3.9234,3.9337,3.9381,3.9521,3.955,3.9581,3.9591,3.9578,3.9574,3.962,3.9611,3.9612,3.9611,3.9609,3.9608,0,3.8309,3.8373,3.853,3.8644,3.8676,3.8771,3.8869,3.8955,3.9008,3.9134,3.9167,3.9252,3.9374,3.9437,3.959,3.962,3.9776,3.9781,3.9741,3.9745,3.9821,3.9812,4.0059,4.0094,3.9913,3.9915,3.9916,0,3.8412,3.8505,3.8629,3.8697,3.8757,3.8867,3.894,3.8995,3.9071,3.9194,3.9265,3.9388,3.9489,3.9683,3.9758,3.9874,3.9882,3.996,3.99,3.9883,3.9882,3.9875,3.9884,3.9971,3.9972,3.9974,3.9975,0,3.8587,3.8613,3.8717,3.8832,3.8918,3.9012,3.9105,3.9159,3.9229,3.9313,3.9437,3.9515,3.967,3.9791,3.9913,3.9975,3.9987,3.9993,4.0018,4.0006,3.9978,3.9993,3.9769,3.9988,3.9986,3.9985,3.9985,3.9984,3.8703,3.8786,3.8885,3.9,3.9075,3.916,3.9246,3.931,3.9414,3.9543,3.957,3.97,3.98,3.9964,4.0029,4.0132,4.0116,4.0152,4.0161,4.0169,4.0171,3.9962,4.0155,4.0154,4.0154,4.0154,4.0154,0,3.8878,3.8942,3.9047,3.9175,3.9265,3.9267,3.9369,3.9444,3.9559,3.965,3.9748,3.989,4.0007,4.009,4.021,4.0276,4.0285,4.0306,4.0301,4.0315,4.018,4.0146,4.0297,4.0297,4.0297,4.0297,4.0296,4.0296,3.898,3.912,3.9157,3.9334,3.9398,3.9525,3.9583,3.9661,3.9734,3.989,3.9987,4.0041,4.0129,4.0254,4.0361,4.0383,4.0425,4.0446,4.0468,4.034,4.0325,4.031,4.0279,4.0455,4.0455,4.0594,4.0596,4.0596]}]]